Time,TemperatureF,DewpointF,PressureIn,WindDirection,WindDirectionDegrees,WindSpeedMPH,WindSpeedGustMPH,Humidity,HourlyPrecipIn,Conditions,Clouds,dailyrainin,SoftwareType,DateUTC
2013-08-28 00:04:00,74.5,68.0,29.38,NE,52,0.0,0.0,79,0.00,,,-99.99,wx200d/1.3,2013-08-28 04:04:00,
2013-08-28 00:09:00,74.3,68.0,29.38,NE,52,0.0,0.0,79,0.00,,,-99.99,wx200d/1.3,2013-08-28 04:09:00,
2013-08-28 00:14:00,74.3,68.0,29.38,NE,52,0.0,0.0,79,0.00,,,-99.99,wx200d/1.3,2013-08-28 04:14:00,
2013-08-28 00:19:00,74.1,66.0,29.38,NE,52,0.0,0.0,80,0.00,,,-99.99,wx200d/1.3,2013-08-28 04:19:00,
2013-08-28 00:24:00,74.1,66.0,29.38,NE,52,0.0,0.0,80,0.00,,,-99.99,wx200d/1.3,2013-08-28 04:24:00,
2013-08-28 00:30:00,73.9,66.0,29.38,NE,43,0.0,0.0,80,0.00,,,-99.99,wx200d/1.3,2013-08-28 04:30:00,
2013-08-28 00:35:00,74.3,70.0,29.38,NE,43,0.0,0.0,81,0.00,,,-99.99,wx200d/1.3,2013-08-28 04:35:00,
2013-08-28 00:40:00,74.8,70.0,29.38,SE,145,0.0,0.0,81,0.00,,,-99.99,wx200d/1.3,2013-08-28 04:40:00,
2013-08-28 00:45:00,75.6,70.0,29.35,East,96,0.0,3.6,82,0.00,,,-99.99,wx200d/1.3,2013-08-28 04:45:00,
2013-08-28 00:50:00,76.1,72.0,29.35,South,187,0.0,4.0,82,0.00,,,-99.99,wx200d/1.3,2013-08-28 04:50:00,
2013-08-28 00:55:00,76.8,72.0,29.35,SSE,159,0.0,4.9,82,0.00,,,-99.99,wx200d/1.3,2013-08-28 04:55:00,
2013-08-28 01:00:00,77.4,72.0,29.35,SSE,163,0.0,3.1,80,0.00,,,-99.99,wx200d/1.3,2013-08-28 05:00:00,
2013-08-28 01:05:00,77.7,70.0,29.35,South,172,0.0,5.4,78,0.00,,,-99.99,wx200d/1.3,2013-08-28 05:05:00,
2013-08-28 01:10:00,78.3,70.0,29.35,South,178,0.0,0.0,74,0.00,,,-99.99,wx200d/1.3,2013-08-28 05:10:00,
2013-08-28 01:15:00,78.6,68.0,29.35,South,188,2.7,6.3,69,0.00,,,-99.99,wx200d/1.3,2013-08-28 05:15:00,
2013-08-28 01:20:00,79.0,68.0,29.35,South,179,3.6,6.7,68,0.00,,,-99.99,wx200d/1.3,2013-08-28 05:20:00,
2013-08-28 01:25:00,79.0,66.0,29.35,SSE,154,3.6,6.7,67,0.00,,,-99.99,wx200d/1.3,2013-08-28 05:25:00,
2013-08-28 01:30:00,79.0,66.0,29.35,SSE,152,0.0,6.3,67,0.00,,,-99.99,wx200d/1.3,2013-08-28 05:30:00,
2013-08-28 01:35:00,79.0,66.0,29.35,SSW,198,0.0,0.0,67,0.00,,,-99.99,wx200d/1.3,2013-08-28 05:35:00,
2013-08-28 01:40:00,79.0,66.0,29.35,SSE,165,0.0,3.6,67,0.00,,,-99.99,wx200d/1.3,2013-08-28 05:40:00,
2013-08-28 01:45:00,78.8,66.0,29.35,South,175,2.7,4.9,67,0.00,,,-99.99,wx200d/1.3,2013-08-28 05:45:00,
2013-08-28 01:50:00,78.6,68.0,29.35,SSW,206,0.0,5.8,68,0.00,,,-99.99,wx200d/1.3,2013-08-28 05:50:00,
2013-08-28 01:55:00,78.6,68.0,29.35,SSE,160,0.0,0.0,69,0.00,,,-99.99,wx200d/1.3,2013-08-28 05:55:00,
2013-08-28 02:00:00,78.4,68.0,29.35,SSE,159,0.0,0.0,69,0.00,,,-99.99,wx200d/1.3,2013-08-28 06:00:00,
2013-08-28 02:05:00,78.4,68.0,29.35,SE,142,0.0,5.4,70,0.00,,,-99.99,wx200d/1.3,2013-08-28 06:05:00,
2013-08-28 02:10:00,78.3,68.0,29.35,South,175,0.0,0.0,70,0.00,,,-99.99,wx200d/1.3,2013-08-28 06:10:00,
2013-08-28 02:16:00,78.3,68.0,29.35,SSE,157,0.0,0.0,70,0.00,,,-99.99,wx200d/1.3,2013-08-28 06:16:00,
2013-08-28 02:21:00,78.1,68.0,29.35,SSE,157,0.0,0.0,71,0.00,,,-99.99,wx200d/1.3,2013-08-28 06:21:00,
2013-08-28 02:26:00,77.9,68.0,29.35,SE,137,0.0,0.0,71,0.00,,,-99.99,wx200d/1.3,2013-08-28 06:26:00,
2013-08-28 02:31:00,77.5,68.0,29.35,SE,138,0.0,0.0,72,0.00,,,-99.99,wx200d/1.3,2013-08-28 06:31:00,
2013-08-28 02:36:00,77.5,68.0,29.35,WNW,290,0.0,0.0,73,0.00,,,-99.99,wx200d/1.3,2013-08-28 06:36:00,
2013-08-28 02:41:00,77.2,68.0,29.35,WNW,290,0.0,0.0,73,0.00,,,-99.99,wx200d/1.3,2013-08-28 06:41:00,
2013-08-28 02:46:00,77.0,68.0,29.35,South,189,0.0,0.0,74,0.00,,,-99.99,wx200d/1.3,2013-08-28 06:46:00,
2013-08-28 02:51:00,77.2,68.0,29.35,South,188,0.0,0.0,75,0.00,,,-99.99,wx200d/1.3,2013-08-28 06:51:00,
2013-08-28 02:56:00,76.8,68.0,29.35,ESE,120,0.0,0.0,75,0.00,,,-99.99,wx200d/1.3,2013-08-28 06:56:00,
2013-08-28 03:01:00,76.5,70.0,29.32,ESE,120,0.0,0.0,76,0.00,,,-99.99,wx200d/1.3,2013-08-28 07:01:00,
2013-08-28 03:06:00,76.3,70.0,29.32,North,10,0.0,0.0,77,0.00,,,-99.99,wx200d/1.3,2013-08-28 07:06:00,
2013-08-28 03:11:00,75.9,68.0,29.32,North,10,0.0,0.0,77,0.00,,,-99.99,wx200d/1.3,2013-08-28 07:11:00,
2013-08-28 03:17:00,75.6,68.0,29.32,ESE,117,0.0,0.0,77,0.00,,,-99.99,wx200d/1.3,2013-08-28 07:17:00,
2013-08-28 03:22:00,75.2,68.0,29.32,ESE,117,0.0,0.0,78,0.00,,,-99.99,wx200d/1.3,2013-08-28 07:22:00,
2013-08-28 03:27:00,75.2,68.0,29.32,ESE,117,0.0,0.0,80,0.00,,,-99.99,wx200d/1.3,2013-08-28 07:27:00,
2013-08-28 03:32:00,75.4,70.0,29.32,ESE,117,0.0,0.0,82,0.00,,,-99.99,wx200d/1.3,2013-08-28 07:32:00,
2013-08-28 03:37:00,75.4,70.0,29.32,ESE,117,0.0,0.0,82,0.00,,,-99.99,wx200d/1.3,2013-08-28 07:37:00,
2013-08-28 03:42:00,75.4,70.0,29.32,ESE,117,0.0,0.0,83,0.00,,,-99.99,wx200d/1.3,2013-08-28 07:42:00,
2013-08-28 03:47:00,75.2,70.0,29.32,ESE,117,0.0,0.0,83,0.00,,,-99.99,wx200d/1.3,2013-08-28 07:47:00,
2013-08-28 03:52:00,75.0,70.0,29.32,ESE,117,0.0,0.0,83,0.00,,,-99.99,wx200d/1.3,2013-08-28 07:52:00,
2013-08-28 03:57:00,75.2,70.0,29.32,SSE,160,0.0,0.0,83,0.00,,,-99.99,wx200d/1.3,2013-08-28 07:57:00,
2013-08-28 04:02:00,75.4,70.0,29.32,SSE,160,0.0,0.0,84,0.00,,,-99.99,wx200d/1.3,2013-08-28 08:02:00,
2013-08-28 04:07:00,75.4,70.0,29.32,SSE,160,0.0,0.0,84,0.00,,,-99.99,wx200d/1.3,2013-08-28 08:07:00,
2013-08-28 04:12:00,75.2,70.0,29.32,SSE,160,0.0,0.0,84,0.00,,,-99.99,wx200d/1.3,2013-08-28 08:12:00,
2013-08-28 04:17:00,75.2,70.0,29.32,SSE,160,0.0,0.0,84,0.00,,,-99.99,wx200d/1.3,2013-08-28 08:17:00,
2013-08-28 04:22:00,75.2,70.0,29.32,WNW,282,0.0,0.0,84,0.00,,,-99.99,wx200d/1.3,2013-08-28 08:22:00,
2013-08-28 04:27:00,75.2,70.0,29.32,WNW,282,0.0,0.0,84,0.00,,,-99.99,wx200d/1.3,2013-08-28 08:27:00,
2013-08-28 04:32:00,75.0,70.0,29.32,WNW,282,0.0,0.0,84,0.00,,,-99.99,wx200d/1.3,2013-08-28 08:32:00,
2013-08-28 04:37:00,74.8,70.0,29.32,WNW,282,0.0,0.0,84,0.00,,,-99.99,wx200d/1.3,2013-08-28 08:37:00,
2013-08-28 04:42:00,74.5,70.0,29.32,WNW,282,0.0,0.0,84,0.00,,,-99.99,wx200d/1.3,2013-08-28 08:42:00,
2013-08-28 04:47:00,74.5,70.0,29.32,West,281,0.0,0.0,84,0.00,,,-99.99,wx200d/1.3,2013-08-28 08:47:00,
2013-08-28 04:52:00,74.5,70.0,29.32,WSW,249,0.0,0.0,84,0.00,,,-99.99,wx200d/1.3,2013-08-28 08:52:00,
2013-08-28 04:57:00,74.5,70.0,29.32,WSW,249,0.0,0.0,84,0.00,,,-99.99,wx200d/1.3,2013-08-28 08:57:00,
2013-08-28 05:02:00,74.3,70.0,29.32,WSW,249,0.0,0.0,84,0.00,,,-99.99,wx200d/1.3,2013-08-28 09:02:00,
2013-08-28 05:07:00,74.5,70.0,29.32,WSW,249,0.0,0.0,85,0.00,,,-99.99,wx200d/1.3,2013-08-28 09:07:00,
2013-08-28 05:12:00,74.5,70.0,29.32,WSW,249,0.0,0.0,85,0.00,,,-99.99,wx200d/1.3,2013-08-28 09:12:00,
2013-08-28 05:17:00,74.5,70.0,29.32,WSW,249,0.0,0.0,85,0.00,,,-99.99,wx200d/1.3,2013-08-28 09:17:00,
2013-08-28 05:22:00,74.1,70.0,29.32,SE,130,0.0,0.0,85,0.00,,,-99.99,wx200d/1.3,2013-08-28 09:22:00,
2013-08-28 05:30:00,74.1,68.0,29.32,SE,130,0.0,0.0,86,0.00,,,-99.99,wx200d/1.3,2013-08-28 09:30:00,
2013-08-28 05:35:00,74.1,68.0,29.32,SE,130,0.0,0.0,86,0.00,,,-99.99,wx200d/1.3,2013-08-28 09:35:00,
2013-08-28 05:40:00,74.3,72.0,29.32,SE,130,0.0,0.0,87,0.00,,,-99.99,wx200d/1.3,2013-08-28 09:40:00,
2013-08-28 05:45:00,74.3,72.0,29.32,SE,130,0.0,0.0,87,0.00,,,-99.99,wx200d/1.3,2013-08-28 09:45:00,
2013-08-28 05:50:00,74.1,70.0,29.32,SE,130,0.0,0.0,87,0.00,,,-99.99,wx200d/1.3,2013-08-28 09:50:00,
2013-08-28 05:55:00,74.3,72.0,29.32,SE,130,0.0,0.0,87,0.00,,,-99.99,wx200d/1.3,2013-08-28 09:55:00,
2013-08-28 06:00:00,74.3,72.0,29.32,SE,130,0.0,0.0,87,0.00,,,-99.99,wx200d/1.3,2013-08-28 10:00:00,
2013-08-28 06:05:00,74.1,70.0,29.32,SE,130,0.0,0.0,87,0.00,,,-99.99,wx200d/1.3,2013-08-28 10:05:00,
2013-08-28 06:10:00,74.1,70.0,29.32,SE,132,0.0,0.0,88,0.00,,,-99.99,wx200d/1.3,2013-08-28 10:10:00,
2013-08-28 06:15:00,73.8,70.0,29.35,SE,132,0.0,0.0,88,0.00,,,-99.99,wx200d/1.3,2013-08-28 10:15:00,
2013-08-28 06:20:00,73.4,70.0,29.35,SE,132,0.0,0.0,88,0.00,,,-99.99,wx200d/1.3,2013-08-28 10:20:00,
2013-08-28 06:25:00,73.4,70.0,29.35,SE,132,0.0,0.0,88,0.00,,,-99.99,wx200d/1.3,2013-08-28 10:25:00,
2013-08-28 06:30:00,73.2,70.0,29.35,SE,132,0.0,0.0,88,0.00,,,-99.99,wx200d/1.3,2013-08-28 10:30:00,
2013-08-28 06:35:00,73.2,70.0,29.35,SE,132,0.0,0.0,89,0.00,,,-99.99,wx200d/1.3,2013-08-28 10:35:00,
2013-08-28 06:41:00,73.6,70.0,29.35,SE,132,0.0,0.0,89,0.00,,,-99.99,wx200d/1.3,2013-08-28 10:41:00,
2013-08-28 06:46:00,73.9,70.0,29.35,SE,132,0.0,0.0,89,0.00,,,-99.99,wx200d/1.3,2013-08-28 10:46:00,
2013-08-28 06:51:00,73.9,70.0,29.35,SE,132,0.0,0.0,90,0.00,,,-99.99,wx200d/1.3,2013-08-28 10:51:00,
2013-08-28 06:56:00,74.1,70.0,29.35,SE,132,0.0,0.0,90,0.00,,,-99.99,wx200d/1.3,2013-08-28 10:56:00,
2013-08-28 07:01:00,74.1,70.0,29.35,SE,132,0.0,0.0,90,0.00,,,-99.99,wx200d/1.3,2013-08-28 11:01:00,
2013-08-28 07:06:00,74.1,70.0,29.35,SE,132,0.0,0.0,90,0.00,,,-99.99,wx200d/1.3,2013-08-28 11:06:00,
2013-08-28 07:11:00,74.1,70.0,29.35,SE,132,0.0,0.0,90,0.00,,,-99.99,wx200d/1.3,2013-08-28 11:11:00,
2013-08-28 07:16:00,74.3,72.0,29.35,SE,132,0.0,0.0,90,0.00,,,-99.99,wx200d/1.3,2013-08-28 11:16:00,
2013-08-28 07:21:00,74.3,72.0,29.35,SE,132,0.0,0.0,90,0.00,,,-99.99,wx200d/1.3,2013-08-28 11:21:00,
2013-08-28 07:26:00,74.3,72.0,29.35,SE,132,0.0,0.0,90,0.00,,,-99.99,wx200d/1.3,2013-08-28 11:26:00,
2013-08-28 07:31:00,74.3,72.0,29.35,SE,132,0.0,0.0,90,0.00,,,-99.99,wx200d/1.3,2013-08-28 11:31:00,
2013-08-28 07:36:00,74.5,72.0,29.35,SE,132,0.0,0.0,90,0.00,,,-99.99,wx200d/1.3,2013-08-28 11:36:00,
2013-08-28 07:41:00,74.5,72.0,29.35,SE,132,0.0,0.0,90,0.00,,,-99.99,wx200d/1.3,2013-08-28 11:41:00,
2013-08-28 07:46:00,74.5,72.0,29.35,SE,132,0.0,0.0,91,0.00,,,-99.99,wx200d/1.3,2013-08-28 11:46:00,
2013-08-28 07:51:00,74.7,72.0,29.35,SE,132,0.0,0.0,91,0.00,,,-99.99,wx200d/1.3,2013-08-28 11:51:00,
2013-08-28 07:56:00,74.8,72.0,29.35,SE,132,0.0,0.0,91,0.00,,,-99.99,wx200d/1.3,2013-08-28 11:56:00,
2013-08-28 08:01:00,74.8,72.0,29.35,SE,132,0.0,0.0,91,0.00,,,-99.99,wx200d/1.3,2013-08-28 12:01:00,
2013-08-28 08:07:00,75.0,72.0,29.35,SE,132,0.0,0.0,91,0.00,,,-99.99,wx200d/1.3,2013-08-28 12:07:00,
2013-08-28 08:12:00,75.0,72.0,29.35,SE,132,0.0,0.0,91,0.00,,,-99.99,wx200d/1.3,2013-08-28 12:12:00,
2013-08-28 08:17:00,75.0,72.0,29.35,SE,132,0.0,0.0,91,0.00,,,-99.99,wx200d/1.3,2013-08-28 12:17:00,
2013-08-28 08:22:00,75.0,72.0,29.35,SE,132,0.0,0.0,91,0.00,,,-99.99,wx200d/1.3,2013-08-28 12:22:00,
2013-08-28 08:27:00,75.2,72.0,29.35,SE,132,0.0,0.0,91,0.00,,,-99.99,wx200d/1.3,2013-08-28 12:27:00,
2013-08-28 08:32:00,75.4,72.0,29.35,SE,132,0.0,0.0,91,0.00,,,-99.99,wx200d/1.3,2013-08-28 12:32:00,
2013-08-28 08:37:00,75.4,72.0,29.35,SE,132,0.0,0.0,91,0.00,,,-99.99,wx200d/1.3,2013-08-28 12:37:00,
2013-08-28 08:42:00,75.6,72.0,29.35,SE,132,0.0,0.0,91,0.00,,,-99.99,wx200d/1.3,2013-08-28 12:42:00,
2013-08-28 08:47:00,75.7,72.0,29.35,SE,132,0.0,0.0,91,0.00,,,-99.99,wx200d/1.3,2013-08-28 12:47:00,
2013-08-28 08:52:00,75.9,72.0,29.35,SE,132,0.0,0.0,91,0.00,,,-99.99,wx200d/1.3,2013-08-28 12:52:00,
2013-08-28 08:57:00,75.9,72.0,29.35,SE,132,0.0,0.0,91,0.00,,,-99.99,wx200d/1.3,2013-08-28 12:57:00,
2013-08-28 09:02:00,75.7,72.0,29.35,SE,132,0.0,0.0,91,0.00,,,-99.99,wx200d/1.3,2013-08-28 13:02:00,
2013-08-28 09:08:00,75.9,72.0,29.35,SE,132,0.0,0.0,91,0.00,,,-99.99,wx200d/1.3,2013-08-28 13:08:00,
2013-08-28 09:13:00,75.7,72.0,29.35,SE,132,0.0,0.0,91,0.00,,,-99.99,wx200d/1.3,2013-08-28 13:13:00,
2013-08-28 09:18:00,75.9,72.0,29.35,SE,132,0.0,0.0,91,0.00,,,-99.99,wx200d/1.3,2013-08-28 13:18:00,
2013-08-28 09:23:00,75.7,72.0,29.35,SW,227,0.0,0.0,91,0.00,,,-99.99,wx200d/1.3,2013-08-28 13:23:00,
2013-08-28 09:28:00,75.7,72.0,29.35,WSW,251,0.0,4.9,91,0.00,,,-99.99,wx200d/1.3,2013-08-28 13:28:00,
2013-08-28 09:33:00,75.6,72.0,29.35,WSW,249,0.0,3.6,91,0.00,,,-99.99,wx200d/1.3,2013-08-28 13:33:00,
2013-08-28 09:38:00,75.4,72.0,29.35,WNW,283,5.4,7.8,91,2.05,,,-99.99,wx200d/1.3,2013-08-28 13:38:00,
2013-08-28 09:43:00,75.0,72.0,29.35,West,278,0.0,6.7,91,2.05,,,-99.99,wx200d/1.3,2013-08-28 13:43:00,
2013-08-28 09:48:00,75.0,72.0,29.35,West,278,0.0,0.0,91,2.05,,,-99.99,wx200d/1.3,2013-08-28 13:48:00,
2013-08-28 09:53:00,75.0,72.0,29.35,West,277,0.0,0.0,91,2.05,,,-99.99,wx200d/1.3,2013-08-28 13:53:00,
2013-08-28 09:58:00,75.2,72.0,29.35,NE,41,0.0,2.7,91,2.05,,,-99.99,wx200d/1.3,2013-08-28 13:58:00,
2013-08-28 10:03:00,75.2,72.0,29.35,ESE,104,0.0,4.0,91,2.05,,,-99.99,wx200d/1.3,2013-08-28 14:03:00,
2013-08-28 10:08:00,75.2,73.0,29.35,ESE,111,0.0,0.0,92,2.05,,,-99.99,wx200d/1.3,2013-08-28 14:08:00,
2013-08-28 10:13:00,75.4,73.0,29.35,ESE,111,0.0,0.0,92,2.05,,,-99.99,wx200d/1.3,2013-08-28 14:13:00,
2013-08-28 10:18:00,75.4,73.0,29.35,ESE,111,0.0,0.0,92,2.05,,,-99.99,wx200d/1.3,2013-08-28 14:18:00,
2013-08-28 10:23:00,75.6,73.0,29.35,ESE,111,0.0,0.0,92,2.05,,,-99.99,wx200d/1.3,2013-08-28 14:23:00,
2013-08-28 10:28:00,75.4,73.0,29.35,East,96,0.0,0.0,92,2.05,,,-99.99,wx200d/1.3,2013-08-28 14:28:00,
2013-08-28 10:33:00,75.6,73.0,29.35,East,96,0.0,0.0,92,2.05,,,-99.99,wx200d/1.3,2013-08-28 14:33:00,
2013-08-28 10:38:00,75.9,73.0,29.35,East,96,0.0,0.0,92,2.05,,,-99.99,wx200d/1.3,2013-08-28 14:38:00,
2013-08-28 10:43:00,75.9,73.0,29.35,East,96,0.0,0.0,92,2.05,,,-99.99,wx200d/1.3,2013-08-28 14:43:00,
2013-08-28 10:48:00,75.9,73.0,29.35,East,96,0.0,0.0,92,2.05,,,-99.99,wx200d/1.3,2013-08-28 14:48:00,
2013-08-28 10:53:00,76.1,75.0,29.35,East,96,0.0,0.0,92,2.05,,,-99.99,wx200d/1.3,2013-08-28 14:53:00,
2013-08-28 10:58:00,76.1,73.0,29.35,East,96,0.0,0.0,91,2.05,,,-99.99,wx200d/1.3,2013-08-28 14:58:00,
2013-08-28 11:03:00,76.3,73.0,29.35,East,96,0.0,0.0,91,2.05,,,-99.99,wx200d/1.3,2013-08-28 15:03:00,
2013-08-28 11:08:00,76.5,73.0,29.35,East,96,0.0,0.0,91,2.05,,,-99.99,wx200d/1.3,2013-08-28 15:08:00,
2013-08-28 11:13:00,76.5,73.0,29.35,East,96,0.0,0.0,91,2.05,,,-99.99,wx200d/1.3,2013-08-28 15:13:00,
2013-08-28 11:18:00,76.6,73.0,29.35,East,96,0.0,0.0,91,2.05,,,-99.99,wx200d/1.3,2013-08-28 15:18:00,
2013-08-28 11:23:00,76.8,73.0,29.35,East,96,0.0,0.0,91,2.05,,,-99.99,wx200d/1.3,2013-08-28 15:23:00,
2013-08-28 11:28:00,77.0,73.0,29.35,East,96,0.0,0.0,91,2.05,,,-99.99,wx200d/1.3,2013-08-28 15:28:00,
2013-08-28 11:33:00,77.0,73.0,29.35,East,96,0.0,0.0,91,2.05,,,-99.99,wx200d/1.3,2013-08-28 15:33:00,
2013-08-28 11:38:00,77.2,73.0,29.35,East,96,0.0,0.0,91,2.05,,,-99.99,wx200d/1.3,2013-08-28 15:38:00,
2013-08-28 11:44:00,77.4,73.0,29.35,East,96,0.0,0.0,91,2.05,,,-99.99,wx200d/1.3,2013-08-28 15:44:00,
2013-08-28 11:49:00,77.5,73.0,29.35,East,96,0.0,0.0,91,0.00,,,-99.99,wx200d/1.3,2013-08-28 15:49:00,
2013-08-28 11:54:00,77.5,73.0,29.35,East,96,0.0,0.0,91,0.00,,,-99.99,wx200d/1.3,2013-08-28 15:54:00,
2013-08-28 11:59:00,77.9,75.0,29.35,East,97,0.0,0.0,91,0.00,,,-99.99,wx200d/1.3,2013-08-28 15:59:00,
2013-08-28 12:04:00,78.4,75.0,29.35,East,96,0.0,0.0,91,0.00,,,-99.99,wx200d/1.3,2013-08-28 16:04:00,
2013-08-28 12:09:00,79.0,75.0,29.35,East,96,0.0,0.0,91,0.00,,,-99.99,wx200d/1.3,2013-08-28 16:09:00,
2013-08-28 12:14:00,79.5,77.0,29.35,East,96,0.0,0.0,92,0.00,,,-99.99,wx200d/1.3,2013-08-28 16:14:00,
2013-08-28 12:19:00,80.1,77.0,29.35,East,96,0.0,0.0,91,0.00,,,-99.99,wx200d/1.3,2013-08-28 16:19:00,
2013-08-28 12:24:00,80.8,79.0,29.35,East,96,0.0,0.0,92,0.00,,,-99.99,wx200d/1.3,2013-08-28 16:24:00,
2013-08-28 12:29:00,81.5,79.0,29.32,SE,126,0.0,3.1,91,0.00,,,-99.99,wx200d/1.3,2013-08-28 16:29:00,
2013-08-28 12:34:00,82.0,79.0,29.32,SE,125,0.0,0.0,91,0.00,,,-99.99,wx200d/1.3,2013-08-28 16:34:00,
2013-08-28 12:39:00,82.4,79.0,29.32,ESE,114,0.0,0.0,91,0.00,,,-99.99,wx200d/1.3,2013-08-28 16:39:00,
2013-08-28 12:44:00,82.8,79.0,29.32,ESE,114,0.0,0.0,91,0.00,,,-99.99,wx200d/1.3,2013-08-28 16:44:00,
2013-08-28 12:49:00,82.8,79.0,29.32,ESE,114,0.0,0.0,90,0.00,,,-99.99,wx200d/1.3,2013-08-28 16:49:00,
2013-08-28 12:54:00,83.1,79.0,29.32,SW,221,0.0,0.0,90,0.00,,,-99.99,wx200d/1.3,2013-08-28 16:54:00,
2013-08-28 12:59:00,82.4,79.0,29.32,SW,217,0.0,0.0,88,0.00,,,-99.99,wx200d/1.3,2013-08-28 16:59:00,
2013-08-28 13:04:00,82.4,79.0,29.32,SW,218,0.0,0.0,87,0.00,,,-99.99,wx200d/1.3,2013-08-28 17:04:00,
2013-08-28 13:09:00,82.0,77.0,29.32,SW,219,0.0,0.0,82,0.00,,,-99.99,wx200d/1.3,2013-08-28 17:09:00,
2013-08-28 13:15:00,81.7,73.0,29.32,SW,222,0.0,0.0,72,0.00,,,-99.99,wx200d/1.3,2013-08-28 17:15:00,
2013-08-28 13:20:00,82.0,73.0,29.32,SW,222,0.0,0.0,74,0.00,,,-99.99,wx200d/1.3,2013-08-28 17:20:00,
2013-08-28 13:25:00,82.2,73.0,29.32,SSW,201,0.0,0.0,75,0.00,,,-99.99,wx200d/1.3,2013-08-28 17:25:00,
2013-08-28 13:30:00,82.8,73.0,29.32,SSW,201,0.0,0.0,75,0.00,,,-99.99,wx200d/1.3,2013-08-28 17:30:00,
2013-08-28 13:35:00,82.2,72.0,29.32,SSW,201,0.0,0.0,70,0.00,,,-99.99,wx200d/1.3,2013-08-28 17:35:00,
2013-08-28 13:40:00,82.0,72.0,29.32,SSW,201,0.0,0.0,69,0.00,,,-99.99,wx200d/1.3,2013-08-28 17:40:00,
2013-08-28 13:45:00,81.9,72.0,29.32,SSW,201,0.0,0.0,70,0.00,,,-99.99,wx200d/1.3,2013-08-28 17:45:00,
2013-08-28 13:50:00,81.7,72.0,29.32,SSW,201,0.0,0.0,70,0.00,,,-99.99,wx200d/1.3,2013-08-28 17:50:00,
2013-08-28 13:55:00,81.7,72.0,29.32,SSW,201,0.0,0.0,71,0.00,,,-99.99,wx200d/1.3,2013-08-28 17:55:00,
2013-08-28 14:00:00,81.7,73.0,29.32,SSW,201,0.0,0.0,72,0.00,,,-99.99,wx200d/1.3,2013-08-28 18:00:00,
2013-08-28 14:05:00,81.7,73.0,29.32,SSW,201,0.0,0.0,73,0.00,,,-99.99,wx200d/1.3,2013-08-28 18:05:00,
2013-08-28 14:11:00,81.7,73.0,29.32,ESE,102,0.0,0.0,74,0.00,,,-99.99,wx200d/1.3,2013-08-28 18:11:00,
2013-08-28 14:16:00,81.7,73.0,29.32,East,97,0.0,0.0,74,0.00,,,-99.99,wx200d/1.3,2013-08-28 18:16:00,
2013-08-28 14:21:00,81.7,73.0,29.32,NNE,30,0.0,3.1,75,0.00,,,-99.99,wx200d/1.3,2013-08-28 18:21:00,
2013-08-28 14:26:00,81.7,73.0,29.32,East,87,0.0,3.1,75,0.00,,,-99.99,wx200d/1.3,2013-08-28 18:26:00,
2013-08-28 14:31:00,81.5,73.0,29.32,ENE,67,0.0,0.0,76,0.00,,,-99.99,wx200d/1.3,2013-08-28 18:31:00,
2013-08-28 14:36:00,81.5,75.0,29.32,ENE,71,0.0,3.6,77,0.00,,,-99.99,wx200d/1.3,2013-08-28 18:36:00,
2013-08-28 14:41:00,81.5,75.0,29.32,SE,125,0.0,0.0,77,0.00,,,-99.99,wx200d/1.3,2013-08-28 18:41:00,
2013-08-28 14:46:00,81.1,73.0,29.32,East,84,0.0,0.0,78,0.00,,,-99.99,wx200d/1.3,2013-08-28 18:46:00,
2013-08-28 14:51:00,81.0,73.0,29.32,NE,40,0.0,4.9,78,0.00,,,-99.99,wx200d/1.3,2013-08-28 18:51:00,
2013-08-28 14:56:00,80.8,73.0,29.32,ENE,60,0.0,5.4,79,0.00,,,-99.99,wx200d/1.3,2013-08-28 18:56:00,
2013-08-28 15:01:00,81.0,73.0,29.29,ENE,60,0.0,3.6,80,0.00,,,-99.99,wx200d/1.3,2013-08-28 19:01:00,
2013-08-28 15:06:00,81.0,73.0,29.29,ENE,76,0.0,4.0,80,0.00,,,-99.99,wx200d/1.3,2013-08-28 19:06:00,
2013-08-28 15:11:00,81.0,73.0,29.29,East,96,0.0,0.0,80,0.00,,,-99.99,wx200d/1.3,2013-08-28 19:11:00,
2013-08-28 15:16:00,80.4,73.0,29.29,NE,45,2.7,6.7,80,0.00,,,-99.99,wx200d/1.3,2013-08-28 19:16:00,
2013-08-28 15:21:00,80.2,73.0,29.29,ENE,69,0.0,4.0,80,0.00,,,-99.99,wx200d/1.3,2013-08-28 19:21:00,
2013-08-28 15:26:00,80.1,73.0,29.29,ENE,75,0.0,4.5,80,0.00,,,-99.99,wx200d/1.3,2013-08-28 19:26:00,
2013-08-28 15:31:00,79.9,75.0,29.29,NE,49,0.0,2.7,81,0.00,,,-99.99,wx200d/1.3,2013-08-28 19:31:00,
2013-08-28 15:36:00,79.9,75.0,29.29,NE,49,2.7,5.8,81,0.00,,,-99.99,wx200d/1.3,2013-08-28 19:36:00,
2013-08-28 15:41:00,79.7,75.0,29.29,ENE,64,0.0,4.9,82,0.00,,,-99.99,wx200d/1.3,2013-08-28 19:41:00,
2013-08-28 15:46:00,79.5,73.0,29.29,ENE,75,0.0,4.0,82,0.00,,,-99.99,wx200d/1.3,2013-08-28 19:46:00,
2013-08-28 15:51:00,79.5,73.0,29.29,NNE,27,0.0,4.0,82,0.00,,,-99.99,wx200d/1.3,2013-08-28 19:51:00,
2013-08-28 15:56:00,79.5,73.0,29.29,NE,56,0.0,5.4,82,0.00,,,-99.99,wx200d/1.3,2013-08-28 19:56:00,
2013-08-28 16:01:00,79.5,73.0,29.29,ENE,59,0.0,4.0,82,0.00,,,-99.99,wx200d/1.3,2013-08-28 20:01:00,
2013-08-28 16:06:00,79.7,75.0,29.29,NE,42,0.0,5.8,83,0.00,,,-99.99,wx200d/1.3,2013-08-28 20:06:00,
2013-08-28 16:11:00,79.5,73.0,29.29,ENE,68,3.6,4.9,82,0.00,,,-99.99,wx200d/1.3,2013-08-28 20:11:00,
2013-08-28 16:16:00,79.5,73.0,29.29,NE,37,0.0,5.4,82,0.00,,,-99.99,wx200d/1.3,2013-08-28 20:16:00,
2013-08-28 16:21:00,79.5,73.0,29.29,East,89,2.7,4.9,83,0.00,,,-99.99,wx200d/1.3,2013-08-28 20:21:00,
2013-08-28 16:26:00,79.5,73.0,29.29,NE,46,4.0,5.8,82,0.00,,,-99.99,wx200d/1.3,2013-08-28 20:26:00,
2013-08-28 16:31:00,79.3,73.0,29.29,NE,43,2.7,4.9,82,0.00,,,-99.99,wx200d/1.3,2013-08-28 20:31:00,
2013-08-28 16:36:00,79.3,73.0,29.29,NE,43,3.1,6.3,83,0.00,,,-99.99,wx200d/1.3,2013-08-28 20:36:00,
2013-08-28 16:41:00,79.5,73.0,29.29,ENE,64,0.0,3.1,83,0.00,,,-99.99,wx200d/1.3,2013-08-28 20:41:00,
2013-08-28 16:46:00,79.3,73.0,29.29,NE,47,4.0,7.4,83,0.00,,,-99.99,wx200d/1.3,2013-08-28 20:46:00,
2013-08-28 16:51:00,79.3,73.0,29.29,NE,34,0.0,7.4,83,0.00,,,-99.99,wx200d/1.3,2013-08-28 20:51:00,
2013-08-28 16:56:00,79.3,73.0,29.29,NNE,30,4.5,5.8,83,0.00,,,-99.99,wx200d/1.3,2013-08-28 20:56:00,
2013-08-28 17:01:00,79.2,73.0,29.29,NE,48,0.0,4.9,83,0.00,,,-99.99,wx200d/1.3,2013-08-28 21:01:00,
2013-08-28 17:06:00,79.2,73.0,29.29,ENE,71,0.0,0.0,83,0.00,,,-99.99,wx200d/1.3,2013-08-28 21:06:00,
2013-08-28 17:11:00,79.2,73.0,29.29,East,79,0.0,3.6,84,0.00,,,-99.99,wx200d/1.3,2013-08-28 21:11:00,
2013-08-28 17:16:00,79.0,73.0,29.29,NNE,19,2.7,5.8,84,0.00,,,-99.99,wx200d/1.3,2013-08-28 21:16:00,
2013-08-28 17:21:00,79.0,73.0,29.29,East,80,0.0,3.6,84,0.00,,,-99.99,wx200d/1.3,2013-08-28 21:21:00,
2013-08-28 17:27:00,78.8,73.0,29.29,ENE,73,0.0,3.1,84,0.00,,,-99.99,wx200d/1.3,2013-08-28 21:27:00,
2013-08-28 17:32:00,78.8,73.0,29.29,ENE,73,0.0,2.7,84,0.00,,,-99.99,wx200d/1.3,2013-08-28 21:32:00,
2013-08-28 17:37:00,78.8,73.0,29.29,ENE,72,0.0,0.0,84,0.00,,,-99.99,wx200d/1.3,2013-08-28 21:37:00,
2013-08-28 17:42:00,78.8,73.0,29.29,ENE,71,0.0,2.7,84,0.00,,,-99.99,wx200d/1.3,2013-08-28 21:42:00,
2013-08-28 17:47:00,78.6,73.0,29.29,NNE,18,2.7,4.9,84,0.00,,,-99.99,wx200d/1.3,2013-08-28 21:47:00,
2013-08-28 17:52:00,78.4,73.0,29.29,ENE,72,0.0,4.9,84,0.00,,,-99.99,wx200d/1.3,2013-08-28 21:52:00,
2013-08-28 17:57:00,78.3,73.0,29.29,North,11,0.0,5.4,84,0.00,,,-99.99,wx200d/1.3,2013-08-28 21:57:00,
2013-08-28 18:02:00,78.1,73.0,29.29,ENE,73,2.7,6.3,84,0.00,,,-99.99,wx200d/1.3,2013-08-28 22:02:00,
2013-08-28 18:07:00,78.1,73.0,29.29,NE,43,0.0,5.4,84,0.00,,,-99.99,wx200d/1.3,2013-08-28 22:07:00,
2013-08-28 18:12:00,77.9,73.0,29.29,NNE,26,3.1,5.8,85,0.00,,,-99.99,wx200d/1.3,2013-08-28 22:12:00,
2013-08-28 18:17:00,77.9,73.0,29.29,NNE,32,0.0,4.9,85,0.00,,,-99.99,wx200d/1.3,2013-08-28 22:17:00,
2013-08-28 18:22:00,77.7,72.0,29.29,ENE,76,2.7,5.4,85,0.00,,,-99.99,wx200d/1.3,2013-08-28 22:22:00,
2013-08-28 18:27:00,77.5,72.0,29.29,ESE,108,5.4,7.8,85,0.00,,,-99.99,wx200d/1.3,2013-08-28 22:27:00,
2013-08-28 18:32:00,77.4,72.0,29.29,ENE,75,5.8,8.7,86,0.00,,,-99.99,wx200d/1.3,2013-08-28 22:32:00,
2013-08-28 18:37:00,77.2,72.0,29.29,ESE,116,5.4,8.3,87,0.00,,,-99.99,wx200d/1.3,2013-08-28 22:37:00,
2013-08-28 18:42:00,77.2,73.0,29.29,ESE,110,4.9,6.9,87,0.00,,,-99.99,wx200d/1.3,2013-08-28 22:42:00,
2013-08-28 18:47:00,77.2,73.0,29.29,ESE,104,0.0,3.6,87,0.00,,,-99.99,wx200d/1.3,2013-08-28 22:47:00,
2013-08-28 18:52:00,77.2,73.0,29.29,East,81,0.0,0.0,87,0.00,,,-99.99,wx200d/1.3,2013-08-28 22:52:00,
2013-08-28 18:57:00,77.2,73.0,29.32,East,81,0.0,0.0,87,0.00,,,-99.99,wx200d/1.3,2013-08-28 22:57:00,
2013-08-28 19:02:00,77.2,73.0,29.32,NNE,33,0.0,0.0,87,0.00,,,-99.99,wx200d/1.3,2013-08-28 23:02:00,
2013-08-28 19:07:00,77.2,73.0,29.32,NNE,27,0.0,0.0,87,0.00,,,-99.99,wx200d/1.3,2013-08-28 23:07:00,
2013-08-28 19:13:00,77.0,73.0,29.32,NNE,27,0.0,0.0,87,0.00,,,-99.99,wx200d/1.3,2013-08-28 23:13:00,
2013-08-28 19:18:00,77.0,73.0,29.32,NNE,27,0.0,0.0,87,0.00,,,-99.99,wx200d/1.3,2013-08-28 23:18:00,
2013-08-28 19:23:00,77.0,73.0,29.32,NNE,29,0.0,0.0,87,0.00,,,-99.99,wx200d/1.3,2013-08-28 23:23:00,
2013-08-28 19:28:00,77.0,73.0,29.32,NNE,29,0.0,0.0,87,0.00,,,-99.99,wx200d/1.3,2013-08-28 23:28:00,
2013-08-28 19:33:00,77.0,73.0,29.32,NNE,29,0.0,0.0,87,0.00,,,-99.99,wx200d/1.3,2013-08-28 23:33:00,
2013-08-28 19:38:00,77.0,73.0,29.32,NNE,29,0.0,0.0,87,0.00,,,-99.99,wx200d/1.3,2013-08-28 23:38:00,
2013-08-28 19:43:00,77.0,73.0,29.32,NNE,29,0.0,0.0,87,0.00,,,-99.99,wx200d/1.3,2013-08-28 23:43:00,
2013-08-28 19:48:00,77.0,73.0,29.32,NNE,29,0.0,0.0,87,0.00,,,-99.99,wx200d/1.3,2013-08-28 23:48:00,
2013-08-28 19:53:00,77.0,73.0,29.32,NNE,29,0.0,4.5,88,0.00,,,-99.99,wx200d/1.3,2013-08-28 23:53:00,
2013-08-28 19:58:00,76.8,73.0,29.32,NNE,20,0.0,4.5,88,0.00,,,-99.99,wx200d/1.3,2013-08-28 23:58:00,
2013-08-28 20:03:00,76.8,73.0,29.32,NNE,20,0.0,0.0,88,0.00,,,-99.99,wx200d/1.3,2013-08-29 00:03:00,
2013-08-28 20:08:00,76.8,73.0,29.32,NNE,29,0.0,3.6,88,0.00,,,-99.99,wx200d/1.3,2013-08-29 00:08:00,
2013-08-28 20:13:00,76.8,73.0,29.32,NNE,29,0.0,2.7,88,0.00,,,-99.99,wx200d/1.3,2013-08-29 00:13:00,
2013-08-28 20:18:00,76.6,73.0,29.32,NE,44,0.0,4.0,88,0.00,,,-99.99,wx200d/1.3,2013-08-29 00:18:00,
2013-08-28 20:23:00,76.5,73.0,29.32,NE,44,0.0,0.0,88,0.00,,,-99.99,wx200d/1.3,2013-08-29 00:23:00,
2013-08-28 20:28:00,76.5,73.0,29.32,NE,44,0.0,3.1,88,0.00,,,-99.99,wx200d/1.3,2013-08-29 00:28:00,
2013-08-28 20:34:00,76.3,73.0,29.32,NE,44,0.0,0.0,88,0.00,,,-99.99,wx200d/1.3,2013-08-29 00:34:00,
2013-08-28 20:39:00,76.3,73.0,29.32,NE,44,0.0,0.0,88,0.00,,,-99.99,wx200d/1.3,2013-08-29 00:39:00,
2013-08-28 20:44:00,76.1,73.0,29.32,NE,44,0.0,0.0,88,0.00,,,-99.99,wx200d/1.3,2013-08-29 00:44:00,
2013-08-28 20:49:00,76.1,73.0,29.32,NE,44,0.0,0.0,88,0.00,,,-99.99,wx200d/1.3,2013-08-29 00:49:00,
2013-08-28 20:54:00,75.9,72.0,29.32,NE,44,0.0,0.0,88,0.00,,,-99.99,wx200d/1.3,2013-08-29 00:54:00,
2013-08-28 20:59:00,75.7,72.0,29.32,NNW,335,0.0,0.0,88,0.00,,,-99.99,wx200d/1.3,2013-08-29 00:59:00,
2013-08-28 21:04:00,75.7,72.0,29.32,SSW,211,0.0,0.0,89,0.00,,,-99.99,wx200d/1.3,2013-08-29 01:04:00,
2013-08-28 21:09:00,75.6,72.0,29.32,SE,133,0.0,0.0,89,0.00,,,-99.99,wx200d/1.3,2013-08-29 01:09:00,
2013-08-28 21:14:00,75.6,72.0,29.32,East,79,0.0,0.0,89,0.00,,,-99.99,wx200d/1.3,2013-08-29 01:14:00,
2013-08-28 21:19:00,75.6,72.0,29.32,ENE,75,0.0,3.1,89,0.00,,,-99.99,wx200d/1.3,2013-08-29 01:19:00,
2013-08-28 21:24:00,75.6,72.0,29.32,NE,51,0.0,4.5,89,0.00,,,-99.99,wx200d/1.3,2013-08-29 01:24:00,
2013-08-28 21:29:00,75.6,72.0,29.32,East,92,0.0,5.4,89,0.00,,,-99.99,wx200d/1.3,2013-08-29 01:29:00,
2013-08-28 21:34:00,75.7,72.0,29.32,North,8,0.0,4.9,89,0.00,,,-99.99,wx200d/1.3,2013-08-29 01:34:00,
2013-08-28 21:39:00,75.7,72.0,29.32,NNE,23,3.6,5.4,90,0.00,,,-99.99,wx200d/1.3,2013-08-29 01:39:00,
2013-08-28 21:44:00,75.7,72.0,29.35,NNE,16,3.1,4.9,90,0.00,,,-99.99,wx200d/1.3,2013-08-29 01:44:00,
2013-08-28 21:49:00,75.7,72.0,29.35,NE,44,0.0,5.4,90,0.00,,,-99.99,wx200d/1.3,2013-08-29 01:49:00,
2013-08-28 21:54:00,75.7,72.0,29.35,NE,52,0.0,0.0,90,0.00,,,-99.99,wx200d/1.3,2013-08-29 01:54:00,
2013-08-28 21:59:00,75.7,72.0,29.35,NE,52,0.0,0.0,90,0.00,,,-99.99,wx200d/1.3,2013-08-29 01:59:00,
2013-08-28 22:04:00,75.7,72.0,29.35,NNE,14,0.0,4.9,90,0.00,,,-99.99,wx200d/1.3,2013-08-29 02:04:00,
2013-08-28 22:09:00,75.7,72.0,29.35,NNE,13,0.0,0.0,90,0.00,,,-99.99,wx200d/1.3,2013-08-29 02:09:00,
2013-08-28 22:14:00,75.6,72.0,29.35,NE,42,0.0,3.6,90,0.00,,,-99.99,wx200d/1.3,2013-08-29 02:14:00,
2013-08-28 22:19:00,75.7,72.0,29.35,NE,42,0.0,0.0,90,0.00,,,-99.99,wx200d/1.3,2013-08-29 02:19:00,
2013-08-28 22:25:00,75.7,72.0,29.35,NNE,26,0.0,3.6,90,0.00,,,-99.99,wx200d/1.3,2013-08-29 02:25:00,
2013-08-28 22:30:00,75.7,72.0,29.35,NNE,26,0.0,0.0,90,0.00,,,-99.99,wx200d/1.3,2013-08-29 02:30:00,
2013-08-28 22:35:00,75.7,72.0,29.35,NNE,26,0.0,0.0,90,0.00,,,-99.99,wx200d/1.3,2013-08-29 02:35:00,
2013-08-28 22:40:00,75.7,72.0,29.35,NNE,26,0.0,0.0,90,0.00,,,-99.99,wx200d/1.3,2013-08-29 02:40:00,
2013-08-28 22:45:00,75.6,72.0,29.35,NNE,26,0.0,0.0,90,0.00,,,-99.99,wx200d/1.3,2013-08-29 02:45:00,
2013-08-28 22:50:00,75.6,72.0,29.35,NNE,23,0.0,3.1,90,0.00,,,-99.99,wx200d/1.3,2013-08-29 02:50:00,
2013-08-28 22:55:00,75.6,72.0,29.35,NNE,32,0.0,3.1,90,0.00,,,-99.99,wx200d/1.3,2013-08-29 02:55:00,
2013-08-28 23:00:00,75.6,72.0,29.35,NNE,32,0.0,0.0,90,0.00,,,-99.99,wx200d/1.3,2013-08-29 03:00:00,
2013-08-28 23:05:00,75.6,72.0,29.35,NNE,32,0.0,0.0,90,0.00,,,-99.99,wx200d/1.3,2013-08-29 03:05:00,
2013-08-28 23:10:00,75.6,72.0,29.35,NNE,32,0.0,0.0,90,0.00,,,-99.99,wx200d/1.3,2013-08-29 03:10:00,
2013-08-28 23:15:00,75.6,72.0,29.35,NNE,32,0.0,0.0,90,0.00,,,-99.99,wx200d/1.3,2013-08-29 03:15:00,
2013-08-28 23:20:00,75.6,72.0,29.35,NNE,32,0.0,0.0,90,0.00,,,-99.99,wx200d/1.3,2013-08-29 03:20:00,
2013-08-28 23:25:00,75.6,72.0,29.35,NNE,32,0.0,2.7,90,0.00,,,-99.99,wx200d/1.3,2013-08-29 03:25:00,
2013-08-28 23:30:00,75.6,72.0,29.35,NNE,32,0.0,0.0,90,0.00,,,-99.99,wx200d/1.3,2013-08-29 03:30:00,
2013-08-28 23:35:00,75.6,72.0,29.35,NNE,32,0.0,0.0,90,0.00,,,-99.99,wx200d/1.3,2013-08-29 03:35:00,
2013-08-28 23:40:00,75.4,72.0,29.35,NW,304,0.0,0.0,90,0.00,,,-99.99,wx200d/1.3,2013-08-29 03:40:00,
2013-08-28 23:45:00,75.2,72.0,29.35,NNW,342,0.0,2.7,90,0.00,,,-99.99,wx200d/1.3,2013-08-29 03:45:00,
2013-08-28 23:50:00,75.2,72.0,29.35,NE,36,5.4,6.7,90,0.00,,,-99.99,wx200d/1.3,2013-08-29 03:50:00,
2013-08-28 23:55:00,75.2,72.0,29.35,NNE,32,3.1,6.3,90,0.00,,,-99.99,wx200d/1.3,2013-08-29 03:55:00,